TimeBST,TemperatureF,Dew PointF,Humidity,Sea Level PressureIn,VisibilityMPH,Wind Direction,Wind SpeedMPH,Gust SpeedMPH,PrecipitationIn,Events,Conditions,WindDirDegrees,DateUTC
12:50 AM,55.4,51.8,88,29.71,6.2,SSW,17.3,-,N/A,,Mostly Cloudy,210,2012-10-02 23:50:00
1:50 AM,53.6,51.8,94,29.71,6.2,SSW,17.3,-,N/A,,Mostly Cloudy,210,2012-10-03 00:50:00
2:50 AM,53.6,51.8,94,29.71,5.6,SSW,18.4,-,N/A,,Mostly Cloudy,210,2012-10-03 01:50:00
3:50 AM,53.6,51.8,94,29.71,5.6,SSW,18.4,-,N/A,Rain,Light Rain,210,2012-10-03 02:50:00
4:50 AM,53.6,48.2,82,29.65,-9999.0,SW,12.7,-,N/A,,Clear,230,2012-10-03 03:50:00
5:20 AM,53.6,50.0,88,29.65,-9999.0,SW,11.5,-,N/A,,Clear,230,2012-10-03 04:20:00
5:50 AM,53.6,48.2,82,29.65,-9999.0,SW,13.8,-,N/A,,Clear,230,2012-10-03 04:50:00
6:20 AM,53.6,48.2,82,29.65,6.2,SW,12.7,-,N/A,,Partly Cloudy,230,2012-10-03 05:20:00
6:50 AM,53.6,46.4,77,29.65,6.2,WSW,15.0,-,N/A,,Partly Cloudy,240,2012-10-03 05:50:00
7:20 AM,53.6,46.4,77,29.68,6.2,SW,11.5,-,N/A,,Partly Cloudy,230,2012-10-03 06:20:00
7:50 AM,53.6,48.2,82,29.68,6.2,WSW,11.5,-,N/A,,Partly Cloudy,240,2012-10-03 06:50:00
8:20 AM,53.6,48.2,82,29.68,6.2,WSW,11.5,-,N/A,,Partly Cloudy,240,2012-10-03 07:20:00
8:50 AM,53.6,48.2,82,29.68,-9999.0,WSW,11.5,-,N/A,,Clear,240,2012-10-03 07:50:00
9:20 AM,55.4,48.2,77,29.71,6.2,WSW,12.7,-,N/A,,Partly Cloudy,240,2012-10-03 08:20:00
9:50 AM,57.2,48.2,72,29.71,6.2,WSW,18.4,-,N/A,,Partly Cloudy,240,2012-10-03 08:50:00
10:20 AM,57.2,46.4,67,29.71,6.2,SW,16.1,-,N/A,,Partly Cloudy,230,2012-10-03 09:20:00
10:50 AM,57.2,46.4,67,29.71,6.2,WSW,18.4,-,N/A,,Partly Cloudy,240,2012-10-03 09:50:00
11:20 AM,59.0,48.2,67,29.71,6.2,WSW,16.1,-,N/A,,Partly Cloudy,240,2012-10-03 10:20:00
11:50 AM,59.0,44.6,59,29.71,6.2,WSW,18.4,-,N/A,,Scattered Clouds,240,2012-10-03 10:50:00
12:20 PM,53.6,42.8,67,29.71,6.2,West,13.8,-,N/A,,Partly Cloudy,280,2012-10-03 11:20:00
12:50 PM,55.4,44.6,67,29.71,6.2,West,11.5,-,N/A,,Scattered Clouds,260,2012-10-03 11:50:00
1:20 PM,57.2,44.6,63,29.71,6.2,WSW,12.7,-,N/A,,Partly Cloudy,240,2012-10-03 12:20:00
1:50 PM,59.0,44.6,59,29.71,6.2,WSW,12.7,-,N/A,,Partly Cloudy,240,2012-10-03 12:50:00
2:20 PM,57.2,44.6,63,29.71,6.2,SW,15.0,-,N/A,,Partly Cloudy,230,2012-10-03 13:20:00
2:50 PM,57.2,46.4,67,29.71,6.2,SW,13.8,-,N/A,,Partly Cloudy,230,2012-10-03 13:50:00
3:20 PM,57.2,46.4,67,29.68,6.2,SW,15.0,-,N/A,,Partly Cloudy,230,2012-10-03 14:20:00
3:50 PM,57.2,44.6,63,29.68,6.2,SW,18.4,-,N/A,,Partly Cloudy,230,2012-10-03 14:50:00
4:20 PM,57.2,44.6,63,29.68,6.2,SW,15.0,-,N/A,,Partly Cloudy,230,2012-10-03 15:20:00
4:50 PM,57.2,44.6,63,29.68,6.2,SW,16.1,-,N/A,,Partly Cloudy,220,2012-10-03 15:50:00
5:20 PM,55.4,46.4,72,29.68,6.2,SW,15.0,-,N/A,,Partly Cloudy,220,2012-10-03 16:20:00
5:50 PM,55.4,46.4,72,29.68,6.2,SW,15.0,-,N/A,,Partly Cloudy,220,2012-10-03 16:50:00
6:20 PM,55.4,46.4,72,29.68,6.2,SW,13.8,-,N/A,,Partly Cloudy,220,2012-10-03 17:20:00
6:50 PM,53.6,46.4,77,29.68,6.2,SSW,12.7,-,N/A,,Partly Cloudy,210,2012-10-03 17:50:00
7:20 PM,53.6,48.2,82,29.68,6.2,SSW,12.7,-,N/A,,Partly Cloudy,210,2012-10-03 18:20:00
7:50 PM,53.6,48.2,82,29.68,6.2,SSW,13.8,-,N/A,,Partly Cloudy,210,2012-10-03 18:50:00
8:20 PM,53.6,48.2,82,29.68,6.2,SW,13.8,-,N/A,,Partly Cloudy,220,2012-10-03 19:20:00
8:50 PM,53.6,48.2,82,29.68,6.2,SW,12.7,-,N/A,,Scattered Clouds,220,2012-10-03 19:50:00
9:20 PM,51.8,46.4,82,29.71,6.2,WSW,10.4,-,N/A,Rain-Thunderstorm,Light Rain Showers,250,2012-10-03 20:20:00
9:50 PM,51.8,46.4,82,29.71,6.2,West,5.8,-,N/A,,Partly Cloudy,260,2012-10-03 20:50:00
10:20 PM,48.2,44.6,87,29.68,-9999.0,WSW,5.8,-,N/A,,Clear,240,2012-10-03 21:20:00
10:50 PM,50.0,44.6,82,29.68,-9999.0,West,5.8,-,N/A,,Clear,260,2012-10-03 21:50:00
11:20 PM,50.0,46.4,87,29.68,-9999.0,West,4.6,-,N/A,,Clear,270,2012-10-03 22:20:00
11:50 PM,50.0,44.6,82,29.68,-9999.0,WSW,6.9,-,N/A,,Clear,240,2012-10-03 22:50:00